Tracking 29892 objects as of 21-Nov-2024
HD Live streaming from Space Station
objects crossing your sky now

CZ-6A DEB

Track CZ-6A DEB now!
10-day predictions


NORAD ID: 56674
Int'l Code: 2022-151AHA
Perigee: 637.4 km
Apogee: 841.1 km
Inclination: 98.6 °
Period: 99.4 minutes
Semi major axis: 7110 km
RCS: Unknown
Launch date: November 11, 2022
Source: People's Republic of China (PRC)
Launch site: Taiyaun Space Center, China (TSC)

Note: This is SATELLITE DEBRIS
Your satellite tracking list
Your tracking list is empty




NASA's NSSDC Master Catalog

Two Line Element Set (TLE):
1 56674U 22151AHA 24325.01574027  .00012134  00000-0  28775-2 0  9993
2 56674  98.5671 341.0919 0143211 269.8688  88.6094 14.48023156 88186
Source of the keplerian elements: AFSPC